Weather Roundup
Issued by NWS Chicago, IL

Home | Current Version | Previous Version | Graphics & Text | Print | Product List | Glossary On
Versions: 1 2 3 4 5 6 7 8 9 10 11 12 13 14 15 16 17 18 19 20 21 22 23 24 25 26 27 28 29 30 31 32 33 34 35 36 37 38 39 40 41 42 43 44 45 46 47 48 49 50
000
NZUS59 KLOT 262304
HRRLOT

CHICAGO AREA WEATHER ROUNDUP
NATIONAL WEATHER SERVICE CHICAGO/ROMEOVILLE IL
600 PM CDT FRI MAY 26 2017

NOTE: "FAIR" INDICATES FEW OR NO CLOUDS BELOW 12,000 FEET WITH NO
SIGNIFICANT WEATHER AND/OR OBSTRUCTIONS TO VISIBILITY.

* THESE STATIONS ARE NOT UNDER NWS QUALITY CONTROL. THEY ALSO MAY NOT
  REPORT WEATHER SUCH AS PRECIPITATION OR FOG.

ILZ005-006-012>014-019>023-270000-
NORTHEAST ILLINOIS

CITY           SKY/WX    TMP DP  RH WIND       PRES   REMARKS
OHARE          RAIN      56  53  90 NE10      29.81R FOG
MIDWAY         LGT RAIN  60  56  86 N10       29.80S
AURORA         CLOUDY    61  59  93 NE14      29.79R FOG
LANSING*       LGT RAIN  61  61  99 E6        29.78F
JOLIET*        CLOUDY    65  62  90 E9G16     29.78R
WAUKEGAN       LGT RAIN  54  53  97 NE8       29.83S FOG
DUPAGE AIRPORT LGT RAIN  58  58 100 NE12      29.80R FOG
WHEELING       RAIN      54  54 100 NE7       29.84R FOG
KANKAKEE*      CLOUDY    65  64  96 CALM      29.76F
MORRIS*        CLOUDY    66  63  90 E3        29.76S
LEWIS AIRPORT* LGT RAIN  62  61  96 NE9       29.79R
NORTHERLY ISL    N/A     54  51  90 MISG        N/A
$$

WIZ051-052-058>065-066-070>072-270000-
SOUTHEAST WISCONSIN

CITY           SKY/WX    TMP DP  RH WIND       PRES   REMARKS
MILWAUKEE      LGT RAIN  59  56  89 SE5       29.85F
KENOSHA*       HVY RAIN  57  55  93 N3        29.85S FOG
RACINE*        CLOUDY    57  54  89 CALM      29.86F
WAUKESHA       LGT RAIN  57  55  94 E5        29.86S
$$

INZ001>003-010>013-019-020-270000-
NORTHWEST INDIANA

CITY           SKY/WX    TMP DP  RH WIND       PRES   REMARKS
GARY*          LGT RAIN  59  55  88 E12       29.79F
MICHIGAN CITY* NOT AVBL
RENSSELAER*    NOT AVBL
VALPARAISO     LGT RAIN  65  62  90 NE7       29.81F FOG
$$

LMZ740>746-270000-
SOUTHERN LAKE MICHIGAN

STATION/POSITION TIME  SKY/WX   TEMP WIND        PRES    VSBY
                                AIR  DIR/SP/G
                 (UTC)          (F)  (DEG/KT/KT) (MB)    (MI)
HARRISON CRIB    2240            53   10/ 14/ 15   N/A
BURNHAM HARBOR   2300            54  360/ 13/ 15   N/A
CALUMET HARBOR   2230            56   40/  8/ 13 1008.6F
BURNS HARBOR     2240            58   70/ 12/ 14 1009.5F
MICHIGAN CITY    2240            58   50/ 18/ 18   N/A
$$

ABBREVIATIONS USED IN REMARKS
   TC - TEMPERATURE IN CELSIUS
  WCI - WIND CHILL INDEX
   HX - HEAT INDEX
  VSB - VISIBILITY
$$



USA.gov is the U.S. government's official web portal to all federal, state and local government web resources and services.